一网星座-0531星 (ONEWEB-0531 )

导读

ONEWEB-0531是英国OneWeb公司卫星互联网星座的组成部分,于2022年10月22日发射升空,是OneWeb构建全球低轨卫星互联网的节点之一。该卫星运行在1200公里近地极地轨道,配备Ku波段天线,为全球提供高速互联网接入服务,助力填补地面网络覆盖盲区,支撑偏远地区通信连接,是全球第二大低轨卫星星座建设的重要单元。

基本信息
目录编号:
54146
目录名称:
ONEWEB-0531
国际标识:
2022-138AK
轨道中心:
EARTH
卫星名称:
一网星座-0531星
卫星全名:
一网星座-0531星 (ONEWEB-0531 )
卫星状态:
在轨 (已飞行1424 天)
发射日期:
2022-10-22 UTC
国别 :
英国 (GB)
星等 :
--
该卫星已列入 空间交会检测服务 Space Conjunction Data Service (SCDS) ,当前飞行风险评估等级: 无高风险
轨道信息
数据来源 国际轨道数据 AOE轨道数据
星历时间 2026-09-15T08:06:57+0800
23小时前
查看轨道信息
2026-09-15T11:00:00+0800
20小时前
查看轨道信息
半长轴 7559.907km 7559.927km
偏心率 0.000177 0.0001641
轨道倾角 87.914° 87.914°
近地点辐角 106.491° 104.606°
升交点赤经 256.518° 256.495°
平近点角 253.642° 106.563°
近地点 1180.431km 1180.549km
远地点 1183.109km 1183.031km
周期 109.027分钟 109.027分钟
每日圈数 13.207729 13.207677
详细信息
平衡模式:
三轴稳定
覆盖范围:
全球
运营商:
一网卫星公司
运营商所在国:
英国
制造商(研发单位):
一网卫星公司
制造商所在国:
英国
使用方式:
暂无
卫星简介
OneWeb卫星网络由648颗重约125公斤的微型卫星组成,运行在1200公里的轨道上。 每颗卫星都能够提供至少每秒8千兆位的吞吐量,以使用其高吞吐量的Ku频段有效载荷为家庭和移动平台提供互联网接入。该卫星仍在工作。
2D轨道图
3D轨道图
轨道高度分析图
轨道倾角分析图
轨道综合分析图
查看轨道综合分析图
与全量物体交会距离演化趋势 订阅飞行安全评估服务
与全量物体交会风险概率演化趋势 订阅飞行安全评估服务